#datetime,building,power
2023-03-24T00:00:00,mcc,37.52
2023-03-24T00:01:00,mcc,37.98
2023-03-24T00:02:00,mcc,39.14
2023-03-24T00:03:00,mcc,36.94
2023-03-24T00:04:00,mcc,35.46
2023-03-24T00:05:00,mcc,35.35
2023-03-24T00:06:00,mcc,36.26
2023-03-24T00:07:00,mcc,35.27
2023-03-24T00:08:00,mcc,34.84
2023-03-24T00:09:00,mcc,36.45
2023-03-24T00:10:00,mcc,35.09
2023-03-24T00:11:00,mcc,34.44
2023-03-24T00:12:00,mcc,36.83
2023-03-24T00:13:00,mcc,36.01
2023-03-24T00:14:00,mcc,36.45
2023-03-24T00:15:00,mcc,36.16
2023-03-24T00:16:00,mcc,43.97
2023-03-24T00:17:00,mcc,36.69
2023-03-24T00:18:00,mcc,36.56
2023-03-24T00:19:00,mcc,36.26
2023-03-24T00:20:00,mcc,35.16
2023-03-24T00:21:00,mcc,36.03
2023-03-24T00:22:00,mcc,33.48
2023-03-24T00:23:00,mcc,33.16
2023-03-24T00:24:00,mcc,33.72
2023-03-24T00:25:00,mcc,33.29
2023-03-24T00:26:00,mcc,34.82
2023-03-24T00:27:00,mcc,33.78
2023-03-24T00:28:00,mcc,34.16
2023-03-24T00:29:00,mcc,31.31
2023-03-24T00:30:00,mcc,31.81
2023-03-24T00:31:00,mcc,30.97
2023-03-24T00:32:00,mcc,30.96
2023-03-24T00:33:00,mcc,31.11
2023-03-24T00:34:00,mcc,32.75
2023-03-24T00:35:00,mcc,33.47
2023-03-24T00:36:00,mcc,35.31
2023-03-24T00:37:00,mcc,34.85
2023-03-24T00:38:00,mcc,34.33
2023-03-24T00:39:00,mcc,33.72
2023-03-24T00:40:00,mcc,32.35
2023-03-24T00:41:00,mcc,33.49
2023-03-24T00:42:00,mcc,34.64
2023-03-24T00:43:00,mcc,34.78
2023-03-24T00:44:00,mcc,34.65
2023-03-24T00:45:00,mcc,33.97
2023-03-24T00:46:00,mcc,33.28
2023-03-24T00:47:00,mcc,34.00
2023-03-24T00:48:00,mcc,33.96
2023-03-24T00:49:00,mcc,33.27
2023-03-24T00:50:00,mcc,37.09
2023-03-24T00:51:00,mcc,37.17
2023-03-24T00:52:00,mcc,36.42
2023-03-24T00:53:00,mcc,36.47
2023-03-24T00:54:00,mcc,36.80
2023-03-24T00:55:00,mcc,44.72
2023-03-24T00:56:00,mcc,34.70
2023-03-24T00:57:00,mcc,32.30
2023-03-24T00:58:00,mcc,32.87
2023-03-24T00:59:00,mcc,32.93
2023-03-24T01:00:00,mcc,33.22
2023-03-24T01:01:00,mcc,31.84
2023-03-24T01:02:00,mcc,34.18
2023-03-24T01:03:00,mcc,34.07
2023-03-24T01:04:00,mcc,34.14
2023-03-24T01:05:00,mcc,33.55
2023-03-24T01:06:00,mcc,33.51
2023-03-24T01:07:00,mcc,33.05
2023-03-24T01:08:00,mcc,31.73
2023-03-24T01:09:00,mcc,32.28
2023-03-24T01:10:00,mcc,32.44
2023-03-24T01:11:00,mcc,33.90
2023-03-24T01:12:00,mcc,33.96
2023-03-24T01:13:00,mcc,33.26
2023-03-24T01:14:00,mcc,33.88
2023-03-24T01:15:00,mcc,42.59
2023-03-24T01:16:00,mcc,32.72
2023-03-24T01:17:00,mcc,32.77
2023-03-24T01:18:00,mcc,32.19
2023-03-24T01:19:00,mcc,33.03
2023-03-24T01:20:00,mcc,33.72
2023-03-24T01:21:00,mcc,32.88
2023-03-24T01:22:00,mcc,34.79
2023-03-24T01:23:00,mcc,35.73
2023-03-24T01:24:00,mcc,35.14
2023-03-24T01:25:00,mcc,34.17
2023-03-24T01:26:00,mcc,34.32
2023-03-24T01:27:00,mcc,33.66
2023-03-24T01:28:00,mcc,33.35
2023-03-24T01:29:00,mcc,33.67
2023-03-24T01:30:00,mcc,33.39
2023-03-24T01:31:00,mcc,33.86
2023-03-24T01:32:00,mcc,32.45
2023-03-24T01:33:00,mcc,35.30
2023-03-24T01:34:00,mcc,36.40
2023-03-24T01:35:00,mcc,43.84
2023-03-24T01:36:00,mcc,35.66
2023-03-24T01:37:00,mcc,35.97
2023-03-24T01:38:00,mcc,37.52
2023-03-24T01:39:00,mcc,36.09
2023-03-24T01:40:00,mcc,35.28
2023-03-24T01:41:00,mcc,33.72
2023-03-24T01:42:00,mcc,33.35
2023-03-24T01:43:00,mcc,33.90
2023-03-24T01:44:00,mcc,34.02
2023-03-24T01:45:00,mcc,32.93
2023-03-24T01:46:00,mcc,35.89
2023-03-24T01:47:00,mcc,36.08
2023-03-24T01:48:00,mcc,36.88
2023-03-24T01:49:00,mcc,36.58
2023-03-24T01:50:00,mcc,33.65
2023-03-24T01:51:00,mcc,33.17
2023-03-24T01:52:00,mcc,33.67
2023-03-24T01:53:00,mcc,33.70
2023-03-24T01:54:00,mcc,44.74
2023-03-24T01:55:00,mcc,38.79
2023-03-24T01:56:00,mcc,38.32
2023-03-24T01:57:00,mcc,38.95
2023-03-24T01:58:00,mcc,37.78
2023-03-24T01:59:00,mcc,37.70
2023-03-24T02:00:00,mcc,37.86
2023-03-24T02:01:00,mcc,36.36
2023-03-24T02:02:00,mcc,34.03
2023-03-24T02:03:00,mcc,34.58
2023-03-24T02:04:00,mcc,35.14
2023-03-24T02:05:00,mcc,36.39
2023-03-24T02:06:00,mcc,35.57
2023-03-24T02:07:00,mcc,33.43
2023-03-24T02:08:00,mcc,33.86
2023-03-24T02:09:00,mcc,34.86
2023-03-24T02:10:00,mcc,34.57
2023-03-24T02:11:00,mcc,36.01
2023-03-24T02:12:00,mcc,37.97
2023-03-24T02:13:00,mcc,45.04
2023-03-24T02:14:00,mcc,36.98
2023-03-24T02:15:00,mcc,36.88
2023-03-24T02:16:00,mcc,36.01
2023-03-24T02:17:00,mcc,36.11
2023-03-24T02:18:00,mcc,35.64
2023-03-24T02:19:00,mcc,36.31
2023-03-24T02:20:00,mcc,36.64
2023-03-24T02:21:00,mcc,37.86
2023-03-24T02:22:00,mcc,35.56
2023-03-24T02:23:00,mcc,35.36
2023-03-24T02:24:00,mcc,36.19
2023-03-24T02:25:00,mcc,35.05
2023-03-24T02:26:00,mcc,35.01
2023-03-24T02:27:00,mcc,34.26
2023-03-24T02:28:00,mcc,35.52
2023-03-24T02:29:00,mcc,35.41
2023-03-24T02:30:00,mcc,35.21
2023-03-24T02:31:00,mcc,36.39
2023-03-24T02:32:00,mcc,35.93
2023-03-24T02:33:00,mcc,35.55
2023-03-24T02:34:00,mcc,34.22
2023-03-24T02:35:00,mcc,34.40
2023-03-24T02:36:00,mcc,34.15
2023-03-24T02:37:00,mcc,34.73
2023-03-24T02:38:00,mcc,34.16
2023-03-24T02:39:00,mcc,33.84
2023-03-24T02:40:00,mcc,33.28
2023-03-24T02:41:00,mcc,33.38
2023-03-24T02:42:00,mcc,33.34
2023-03-24T02:43:00,mcc,32.19
2023-03-24T02:44:00,mcc,33.26
2023-03-24T02:45:00,mcc,35.21
2023-03-24T02:46:00,mcc,33.94
2023-03-24T02:47:00,mcc,33.43
2023-03-24T02:48:00,mcc,34.20
2023-03-24T02:49:00,mcc,32.28
2023-03-24T02:50:00,mcc,32.68
2023-03-24T02:51:00,mcc,40.61
2023-03-24T02:52:00,mcc,33.16
2023-03-24T02:53:00,mcc,33.29
2023-03-24T02:54:00,mcc,35.72
2023-03-24T02:55:00,mcc,33.89
2023-03-24T02:56:00,mcc,34.26
2023-03-24T02:57:00,mcc,36.58
2023-03-24T02:58:00,mcc,36.92
2023-03-24T02:59:00,mcc,35.81
2023-03-24T03:00:00,mcc,35.55
2023-03-24T03:01:00,mcc,35.40
2023-03-24T03:02:00,mcc,34.88
2023-03-24T03:03:00,mcc,35.50
2023-03-24T03:04:00,mcc,36.61
2023-03-24T03:05:00,mcc,37.09
2023-03-24T03:06:00,mcc,36.78
2023-03-24T03:07:00,mcc,36.21
2023-03-24T03:08:00,mcc,35.47
2023-03-24T03:09:00,mcc,34.83
2023-03-24T03:10:00,mcc,34.49
2023-03-24T03:11:00,mcc,34.76
2023-03-24T03:12:00,mcc,35.46
2023-03-24T03:13:00,mcc,35.75
2023-03-24T03:14:00,mcc,35.65
2023-03-24T03:15:00,mcc,34.33
2023-03-24T03:16:00,mcc,34.18
2023-03-24T03:17:00,mcc,34.91
2023-03-24T03:18:00,mcc,34.52
2023-03-24T03:19:00,mcc,34.41
2023-03-24T03:20:00,mcc,35.56
2023-03-24T03:21:00,mcc,34.33
2023-03-24T03:22:00,mcc,34.65
2023-03-24T03:23:00,mcc,35.74
2023-03-24T03:24:00,mcc,35.36
2023-03-24T03:25:00,mcc,33.84
2023-03-24T03:26:00,mcc,32.85
2023-03-24T03:27:00,mcc,32.62
2023-03-24T03:28:00,mcc,32.21
2023-03-24T03:29:00,mcc,32.41
2023-03-24T03:30:00,mcc,34.40
2023-03-24T03:31:00,mcc,35.86
2023-03-24T03:32:00,mcc,35.48
2023-03-24T03:33:00,mcc,35.51
2023-03-24T03:34:00,mcc,34.16
2023-03-24T03:35:00,mcc,34.18
2023-03-24T03:36:00,mcc,33.81
2023-03-24T03:37:00,mcc,33.59
2023-03-24T03:38:00,mcc,32.19
2023-03-24T03:39:00,mcc,33.18
2023-03-24T03:40:00,mcc,33.59
2023-03-24T03:41:00,mcc,31.02
2023-03-24T03:42:00,mcc,39.99
2023-03-24T03:43:00,mcc,40.50
2023-03-24T03:44:00,mcc,40.91
2023-03-24T03:45:00,mcc,33.08
2023-03-24T03:46:00,mcc,32.89
2023-03-24T03:47:00,mcc,31.64
2023-03-24T03:48:00,mcc,32.09
2023-03-24T03:49:00,mcc,40.42
2023-03-24T03:50:00,mcc,33.70
2023-03-24T03:51:00,mcc,35.34
2023-03-24T03:52:00,mcc,35.36
2023-03-24T03:53:00,mcc,35.55
2023-03-24T03:54:00,mcc,34.84
2023-03-24T03:55:00,mcc,35.04
2023-03-24T03:56:00,mcc,33.95
2023-03-24T03:57:00,mcc,35.22
2023-03-24T03:58:00,mcc,40.21
2023-03-24T03:59:00,mcc,40.31
2023-03-24T04:00:00,mcc,33.15
2023-03-24T04:01:00,mcc,32.20
2023-03-24T04:02:00,mcc,34.40
2023-03-24T04:03:00,mcc,33.16
2023-03-24T04:04:00,mcc,32.59
2023-03-24T04:05:00,mcc,33.39
2023-03-24T04:06:00,mcc,32.70
2023-03-24T04:07:00,mcc,33.99
2023-03-24T04:08:00,mcc,34.69
2023-03-24T04:09:00,mcc,41.73
2023-03-24T04:10:00,mcc,38.72
2023-03-24T04:11:00,mcc,38.85
2023-03-24T04:12:00,mcc,38.92
2023-03-24T04:13:00,mcc,35.08
2023-03-24T04:14:00,mcc,35.56
2023-03-24T04:15:00,mcc,36.30
2023-03-24T04:16:00,mcc,34.55
2023-03-24T04:17:00,mcc,34.77
2023-03-24T04:18:00,mcc,33.38
2023-03-24T04:19:00,mcc,33.86
2023-03-24T04:20:00,mcc,34.39
2023-03-24T04:21:00,mcc,35.61
2023-03-24T04:22:00,mcc,33.73
2023-03-24T04:23:00,mcc,34.05
2023-03-24T04:24:00,mcc,33.52
2023-03-24T04:25:00,mcc,33.34
2023-03-24T04:26:00,mcc,30.03
2023-03-24T04:27:00,mcc,29.98
2023-03-24T04:28:00,mcc,36.17
2023-03-24T04:29:00,mcc,27.98
2023-03-24T04:30:00,mcc,28.26
2023-03-24T04:31:00,mcc,29.24
2023-03-24T04:32:00,mcc,31.65
2023-03-24T04:33:00,mcc,33.11
2023-03-24T04:34:00,mcc,32.65
2023-03-24T04:35:00,mcc,34.17
2023-03-24T04:36:00,mcc,33.07
2023-03-24T04:37:00,mcc,32.70
2023-03-24T04:38:00,mcc,33.31
2023-03-24T04:39:00,mcc,32.66
2023-03-24T04:40:00,mcc,32.12
2023-03-24T04:41:00,mcc,41.23
2023-03-24T04:42:00,mcc,30.95
2023-03-24T04:43:00,mcc,30.98
2023-03-24T04:44:00,mcc,29.33
2023-03-24T04:45:00,mcc,31.40
2023-03-24T04:46:00,mcc,31.44
2023-03-24T04:47:00,mcc,40.61
2023-03-24T04:48:00,mcc,32.98
2023-03-24T04:49:00,mcc,31.71
2023-03-24T04:50:00,mcc,30.76
2023-03-24T04:51:00,mcc,32.61
2023-03-24T04:52:00,mcc,30.84
2023-03-24T04:53:00,mcc,31.86
2023-03-24T04:54:00,mcc,30.17
2023-03-24T04:55:00,mcc,30.38
2023-03-24T04:56:00,mcc,29.67
2023-03-24T04:57:00,mcc,29.93
2023-03-24T04:58:00,mcc,31.29
2023-03-24T04:59:00,mcc,32.58
2023-03-24T05:00:00,mcc,32.32
2023-03-24T05:01:00,mcc,32.72
2023-03-24T05:02:00,mcc,30.93
2023-03-24T05:03:00,mcc,30.37
2023-03-24T05:04:00,mcc,30.21
2023-03-24T05:05:00,mcc,29.65
2023-03-24T05:06:00,mcc,28.98
2023-03-24T05:07:00,mcc,39.74
2023-03-24T05:08:00,mcc,31.77
2023-03-24T05:09:00,mcc,33.23
2023-03-24T05:10:00,mcc,33.34
2023-03-24T05:11:00,mcc,33.87
2023-03-24T05:12:00,mcc,32.89
2023-03-24T05:13:00,mcc,30.64
2023-03-24T05:14:00,mcc,30.35
2023-03-24T05:15:00,mcc,30.48
2023-03-24T05:16:00,mcc,33.26
2023-03-24T05:17:00,mcc,32.13
2023-03-24T05:18:00,mcc,32.98
2023-03-24T05:19:00,mcc,31.47
2023-03-24T05:20:00,mcc,31.52
2023-03-24T05:21:00,mcc,34.68
2023-03-24T05:22:00,mcc,34.41
2023-03-24T05:23:00,mcc,31.91
2023-03-24T05:24:00,mcc,33.81
2023-03-24T05:25:00,mcc,31.44
2023-03-24T05:26:00,mcc,33.86
2023-03-24T05:27:00,mcc,31.45
2023-03-24T05:28:00,mcc,31.31
2023-03-24T05:29:00,mcc,29.51
2023-03-24T05:30:00,mcc,31.96
2023-03-24T05:31:00,mcc,29.76
2023-03-24T05:32:00,mcc,33.64
2023-03-24T05:33:00,mcc,34.52
2023-03-24T05:34:00,mcc,34.51
2023-03-24T05:35:00,mcc,34.76
2023-03-24T05:36:00,mcc,34.72
2023-03-24T05:37:00,mcc,34.48
2023-03-24T05:38:00,mcc,34.24
2023-03-24T05:39:00,mcc,36.15
2023-03-24T05:40:00,mcc,34.23
2023-03-24T05:41:00,mcc,33.83
2023-03-24T05:42:00,mcc,33.86
2023-03-24T05:43:00,mcc,32.12
2023-03-24T05:44:00,mcc,33.06
2023-03-24T05:45:00,mcc,41.38
2023-03-24T05:46:00,mcc,33.80
2023-03-24T05:47:00,mcc,34.14
2023-03-24T05:48:00,mcc,35.10
2023-03-24T05:49:00,mcc,33.41
2023-03-24T05:50:00,mcc,32.85
2023-03-24T05:51:00,mcc,33.96
2023-03-24T05:52:00,mcc,31.87
2023-03-24T05:53:00,mcc,29.62
2023-03-24T05:54:00,mcc,29.58
2023-03-24T05:55:00,mcc,28.89
2023-03-24T05:56:00,mcc,29.51
2023-03-24T05:57:00,mcc,30.98
2023-03-24T05:58:00,mcc,30.31
2023-03-24T05:59:00,mcc,32.10
2023-03-24T06:00:00,mcc,31.71
2023-03-24T06:01:00,mcc,31.59
2023-03-24T06:02:00,mcc,28.88
2023-03-24T06:03:00,mcc,29.35
2023-03-24T06:04:00,mcc,39.41
2023-03-24T06:05:00,mcc,30.97
2023-03-24T06:06:00,mcc,31.91
2023-03-24T06:07:00,mcc,32.56
2023-03-24T06:08:00,mcc,30.81
2023-03-24T06:09:00,mcc,34.95
2023-03-24T06:10:00,mcc,33.57
2023-03-24T06:11:00,mcc,33.23
2023-03-24T06:12:00,mcc,36.35
2023-03-24T06:13:00,mcc,34.96
2023-03-24T06:14:00,mcc,35.69
2023-03-24T06:15:00,mcc,34.90
2023-03-24T06:16:00,mcc,35.19
2023-03-24T06:17:00,mcc,34.90
2023-03-24T06:18:00,mcc,37.02
2023-03-24T06:19:00,mcc,32.73
2023-03-24T06:20:00,mcc,32.06
2023-03-24T06:21:00,mcc,34.03
2023-03-24T06:22:00,mcc,32.12
2023-03-24T06:23:00,mcc,39.75
2023-03-24T06:24:00,mcc,31.03
2023-03-24T06:25:00,mcc,31.56
2023-03-24T06:26:00,mcc,33.80
2023-03-24T06:27:00,mcc,33.89
2023-03-24T06:28:00,mcc,35.78
2023-03-24T06:29:00,mcc,33.19
2023-03-24T06:30:00,mcc,35.87
2023-03-24T06:31:00,mcc,33.92
2023-03-24T06:32:00,mcc,34.18
2023-03-24T06:33:00,mcc,34.52
2023-03-24T06:34:00,mcc,34.05
2023-03-24T06:35:00,mcc,34.77
2023-03-24T06:36:00,mcc,34.37
2023-03-24T06:37:00,mcc,32.95
2023-03-24T06:38:00,mcc,31.78
2023-03-24T06:39:00,mcc,32.39
2023-03-24T06:40:00,mcc,31.17
2023-03-24T06:41:00,mcc,32.34
2023-03-24T06:42:00,mcc,50.61
2023-03-24T06:43:00,mcc,33.17
2023-03-24T06:44:00,mcc,35.85
2023-03-24T06:45:00,mcc,37.28
2023-03-24T06:46:00,mcc,40.33
2023-03-24T06:47:00,mcc,43.35
2023-03-24T06:48:00,mcc,43.44
2023-03-24T06:49:00,mcc,46.77
2023-03-24T06:50:00,mcc,50.75
2023-03-24T06:51:00,mcc,49.76
2023-03-24T06:52:00,mcc,48.72
2023-03-24T06:53:00,mcc,48.26
2023-03-24T06:54:00,mcc,41.85
2023-03-24T06:55:00,mcc,47.75
2023-03-24T06:56:00,mcc,48.60
2023-03-24T06:57:00,mcc,53.34
2023-03-24T06:58:00,mcc,55.55
2023-03-24T06:59:00,mcc,57.29
2023-03-24T07:00:00,mcc,57.94
2023-03-24T07:01:00,mcc,56.97
2023-03-24T07:02:00,mcc,65.86
2023-03-24T07:03:00,mcc,57.40
2023-03-24T07:04:00,mcc,55.61
2023-03-24T07:05:00,mcc,58.14
2023-03-24T07:06:00,mcc,58.22
2023-03-24T07:07:00,mcc,57.11
2023-03-24T07:08:00,mcc,57.08
2023-03-24T07:09:00,mcc,52.35
2023-03-24T07:10:00,mcc,55.89
2023-03-24T07:11:00,mcc,56.67
2023-03-24T07:12:00,mcc,56.34
2023-03-24T07:13:00,mcc,55.15
2023-03-24T07:14:00,mcc,57.31
2023-03-24T07:15:00,mcc,57.25
2023-03-24T07:16:00,mcc,50.35
2023-03-24T07:17:00,mcc,49.27
2023-03-24T07:18:00,mcc,51.37
2023-03-24T07:19:00,mcc,50.24
2023-03-24T07:20:00,mcc,57.25
2023-03-24T07:21:00,mcc,48.68
2023-03-24T07:22:00,mcc,47.54
2023-03-24T07:23:00,mcc,46.12
2023-03-24T07:24:00,mcc,65.30
2023-03-24T07:25:00,mcc,52.61
2023-03-24T07:26:00,mcc,49.80
2023-03-24T07:27:00,mcc,49.10
2023-03-24T07:28:00,mcc,47.82
2023-03-24T07:29:00,mcc,49.07
2023-03-24T07:30:00,mcc,48.56
2023-03-24T07:31:00,mcc,53.29
2023-03-24T07:32:00,mcc,54.07
2023-03-24T07:33:00,mcc,48.64
2023-03-24T07:34:00,mcc,55.77
2023-03-24T07:35:00,mcc,46.62
2023-03-24T07:36:00,mcc,47.64
2023-03-24T07:37:00,mcc,48.79
2023-03-24T07:38:00,mcc,49.56
2023-03-24T07:39:00,mcc,51.30
2023-03-24T07:40:00,mcc,51.08
2023-03-24T07:41:00,mcc,50.61
2023-03-24T07:42:00,mcc,57.60
2023-03-24T07:43:00,mcc,57.21
2023-03-24T07:44:00,mcc,53.24
2023-03-24T07:45:00,mcc,53.90
2023-03-24T07:46:00,mcc,57.48
2023-03-24T07:47:00,mcc,64.90
2023-03-24T07:48:00,mcc,65.44
2023-03-24T07:49:00,mcc,71.31
2023-03-24T07:50:00,mcc,60.40
2023-03-24T07:51:00,mcc,53.25
2023-03-24T07:52:00,mcc,51.48
2023-03-24T07:53:00,mcc,52.40
2023-03-24T07:54:00,mcc,51.44
2023-03-24T07:55:00,mcc,51.56
2023-03-24T07:56:00,mcc,61.40
2023-03-24T07:57:00,mcc,60.73
2023-03-24T07:58:00,mcc,51.76
2023-03-24T07:59:00,mcc,50.43
2023-03-24T08:00:00,mcc,50.05
2023-03-24T08:01:00,mcc,49.90
2023-03-24T08:02:00,mcc,49.74
2023-03-24T08:03:00,mcc,56.32
2023-03-24T08:04:00,mcc,50.65
2023-03-24T08:05:00,mcc,51.36
2023-03-24T08:06:00,mcc,52.02
2023-03-24T08:07:00,mcc,51.15
2023-03-24T08:08:00,mcc,50.65
2023-03-24T08:09:00,mcc,51.19
2023-03-24T08:10:00,mcc,61.17
2023-03-24T08:11:00,mcc,51.45
2023-03-24T08:12:00,mcc,58.37
2023-03-24T08:13:00,mcc,56.63
2023-03-24T08:14:00,mcc,50.67
2023-03-24T08:15:00,mcc,51.43
2023-03-24T08:16:00,mcc,51.63
2023-03-24T08:17:00,mcc,51.84
2023-03-24T08:18:00,mcc,51.00
2023-03-24T08:19:00,mcc,51.42
2023-03-24T08:20:00,mcc,61.94
2023-03-24T08:21:00,mcc,62.51
2023-03-24T08:22:00,mcc,63.49
2023-03-24T08:23:00,mcc,61.16
2023-03-24T08:24:00,mcc,49.58
2023-03-24T08:25:00,mcc,49.30
2023-03-24T08:26:00,mcc,49.44
2023-03-24T08:27:00,mcc,56.99
2023-03-24T08:28:00,mcc,56.75
2023-03-24T08:29:00,mcc,51.57
2023-03-24T08:30:00,mcc,52.56
2023-03-24T08:31:00,mcc,52.47
2023-03-24T08:32:00,mcc,50.67
2023-03-24T08:33:00,mcc,49.85
2023-03-24T08:34:00,mcc,49.99
2023-03-24T08:35:00,mcc,48.28
2023-03-24T08:36:00,mcc,62.91
2023-03-24T08:37:00,mcc,48.04
2023-03-24T08:38:00,mcc,49.21
2023-03-24T08:39:00,mcc,48.82
2023-03-24T08:40:00,mcc,49.29
2023-03-24T08:41:00,mcc,48.41
2023-03-24T08:42:00,mcc,47.72
2023-03-24T08:43:00,mcc,49.47
2023-03-24T08:44:00,mcc,58.10
2023-03-24T08:45:00,mcc,50.13
2023-03-24T08:46:00,mcc,52.35
2023-03-24T08:47:00,mcc,54.60
2023-03-24T08:48:00,mcc,52.10
2023-03-24T08:49:00,mcc,50.56
2023-03-24T08:50:00,mcc,49.64
2023-03-24T08:51:00,mcc,49.23
2023-03-24T08:52:00,mcc,58.27
2023-03-24T08:53:00,mcc,57.72
2023-03-24T08:54:00,mcc,51.13
2023-03-24T08:55:00,mcc,51.66
2023-03-24T08:56:00,mcc,50.60
2023-03-24T08:57:00,mcc,52.03
2023-03-24T08:58:00,mcc,51.61
2023-03-24T08:59:00,mcc,52.50
2023-03-24T09:00:00,mcc,60.86
2023-03-24T09:01:00,mcc,54.21
2023-03-24T09:02:00,mcc,73.47
2023-03-24T09:03:00,mcc,53.68
2023-03-24T09:04:00,mcc,56.08
2023-03-24T09:05:00,mcc,54.28
2023-03-24T09:06:00,mcc,52.77
2023-03-24T09:07:00,mcc,62.84
2023-03-24T09:08:00,mcc,52.61
2023-03-24T09:09:00,mcc,58.53
2023-03-24T09:10:00,mcc,48.79
2023-03-24T09:11:00,mcc,47.61
2023-03-24T09:12:00,mcc,48.93
2023-03-24T09:13:00,mcc,49.80
2023-03-24T09:14:00,mcc,54.55
2023-03-24T09:15:00,mcc,52.13
2023-03-24T09:16:00,mcc,52.09
2023-03-24T09:17:00,mcc,61.44
2023-03-24T09:18:00,mcc,52.09
2023-03-24T09:19:00,mcc,50.29
2023-03-24T09:20:00,mcc,49.24
2023-03-24T09:21:00,mcc,50.75
2023-03-24T09:22:00,mcc,51.46
2023-03-24T09:23:00,mcc,53.32
2023-03-24T09:24:00,mcc,51.80
2023-03-24T09:25:00,mcc,60.58
2023-03-24T09:26:00,mcc,60.08
2023-03-24T09:27:00,mcc,51.00
2023-03-24T09:28:00,mcc,53.02
2023-03-24T09:29:00,mcc,71.59
2023-03-24T09:30:00,mcc,61.73
2023-03-24T09:31:00,mcc,54.64
2023-03-24T09:32:00,mcc,53.82
2023-03-24T09:33:00,mcc,54.57
2023-03-24T09:34:00,mcc,54.27
2023-03-24T09:35:00,mcc,58.90
2023-03-24T09:36:00,mcc,52.88
2023-03-24T09:37:00,mcc,55.31
2023-03-24T09:38:00,mcc,55.55
2023-03-24T09:39:00,mcc,62.83
2023-03-24T09:40:00,mcc,61.20
2023-03-24T09:41:00,mcc,53.65
2023-03-24T09:42:00,mcc,54.44
2023-03-24T09:43:00,mcc,55.30
2023-03-24T09:44:00,mcc,53.53
2023-03-24T09:45:00,mcc,52.04
2023-03-24T09:46:00,mcc,51.11
2023-03-24T09:47:00,mcc,57.94
2023-03-24T09:48:00,mcc,50.33
2023-03-24T09:49:00,mcc,51.07
2023-03-24T09:50:00,mcc,50.69
2023-03-24T09:51:00,mcc,50.52
2023-03-24T09:52:00,mcc,50.87
2023-03-24T09:53:00,mcc,59.05
2023-03-24T09:54:00,mcc,50.47
2023-03-24T09:55:00,mcc,50.71
2023-03-24T09:56:00,mcc,47.79
2023-03-24T09:57:00,mcc,47.65
2023-03-24T09:58:00,mcc,46.95
2023-03-24T09:59:00,mcc,56.32
2023-03-24T10:00:00,mcc,50.43
2023-03-24T10:01:00,mcc,57.42
2023-03-24T10:02:00,mcc,57.42
2023-03-24T10:03:00,mcc,58.41
2023-03-24T10:04:00,mcc,58.69
2023-03-24T10:05:00,mcc,52.76
2023-03-24T10:06:00,mcc,61.81
2023-03-24T10:07:00,mcc,64.68
2023-03-24T10:08:00,mcc,55.31
2023-03-24T10:09:00,mcc,56.15
2023-03-24T10:10:00,mcc,57.17
2023-03-24T10:11:00,mcc,57.29
2023-03-24T10:12:00,mcc,61.15
2023-03-24T10:13:00,mcc,67.33
2023-03-24T10:14:00,mcc,66.44
2023-03-24T10:15:00,mcc,63.31
2023-03-24T10:16:00,mcc,56.13
2023-03-24T10:17:00,mcc,56.60
2023-03-24T10:18:00,mcc,61.77
2023-03-24T10:19:00,mcc,55.59
2023-03-24T10:20:00,mcc,54.63
2023-03-24T10:21:00,mcc,55.66
2023-03-24T10:22:00,mcc,63.86
2023-03-24T10:23:00,mcc,56.05
2023-03-24T10:24:00,mcc,55.62
2023-03-24T10:25:00,mcc,50.74
2023-03-24T10:26:00,mcc,50.83
2023-03-24T10:27:00,mcc,50.71
2023-03-24T10:28:00,mcc,51.19
2023-03-24T10:29:00,mcc,59.82
2023-03-24T10:30:00,mcc,52.46
2023-03-24T10:31:00,mcc,61.74
2023-03-24T10:32:00,mcc,51.68
2023-03-24T10:33:00,mcc,50.80
2023-03-24T10:34:00,mcc,50.63
2023-03-24T10:35:00,mcc,50.58
2023-03-24T10:36:00,mcc,50.98
2023-03-24T10:37:00,mcc,50.09
2023-03-24T10:38:00,mcc,52.09
2023-03-24T10:39:00,mcc,54.63
2023-03-24T10:40:00,mcc,61.87
2023-03-24T10:41:00,mcc,55.34
2023-03-24T10:42:00,mcc,53.44
2023-03-24T10:43:00,mcc,61.07
2023-03-24T10:44:00,mcc,48.60
2023-03-24T10:45:00,mcc,49.76
2023-03-24T10:46:00,mcc,49.34
2023-03-24T10:47:00,mcc,57.52
2023-03-24T10:48:00,mcc,52.08
2023-03-24T10:49:00,mcc,51.96
2023-03-24T10:50:00,mcc,59.15
2023-03-24T10:51:00,mcc,59.39
2023-03-24T10:52:00,mcc,60.77
2023-03-24T10:53:00,mcc,59.44
2023-03-24T10:54:00,mcc,50.83
2023-03-24T10:55:00,mcc,57.64
2023-03-24T10:56:00,mcc,57.17
2023-03-24T10:57:00,mcc,58.18
2023-03-24T10:58:00,mcc,56.64
2023-03-24T10:59:00,mcc,55.70
2023-03-24T11:00:00,mcc,58.04
2023-03-24T11:01:00,mcc,61.73
2023-03-24T11:02:00,mcc,69.90
2023-03-24T11:03:00,mcc,63.89
2023-03-24T11:04:00,mcc,62.51
2023-03-24T11:05:00,mcc,56.19
2023-03-24T11:06:00,mcc,65.02
2023-03-24T11:07:00,mcc,65.02
2023-03-24T11:08:00,mcc,57.40
2023-03-24T11:09:00,mcc,54.85
2023-03-24T11:10:00,mcc,55.24
2023-03-24T11:11:00,mcc,55.29
2023-03-24T11:12:00,mcc,53.27
2023-03-24T11:13:00,mcc,52.92
2023-03-24T11:14:00,mcc,51.19
2023-03-24T11:15:00,mcc,51.43
2023-03-24T11:16:00,mcc,54.74
2023-03-24T11:17:00,mcc,57.27
2023-03-24T11:18:00,mcc,56.23
2023-03-24T11:19:00,mcc,55.86
2023-03-24T11:20:00,mcc,54.13
2023-03-24T11:21:00,mcc,64.67
2023-03-24T11:22:00,mcc,57.07
2023-03-24T11:23:00,mcc,57.17
2023-03-24T11:24:00,mcc,54.14
2023-03-24T11:25:00,mcc,54.49
2023-03-24T11:26:00,mcc,54.53
2023-03-24T11:27:00,mcc,51.09
2023-03-24T11:28:00,mcc,49.95
2023-03-24T11:29:00,mcc,64.91
2023-03-24T11:30:00,mcc,56.88
2023-03-24T11:31:00,mcc,50.32
2023-03-24T11:32:00,mcc,52.46
2023-03-24T11:33:00,mcc,54.56
2023-03-24T11:34:00,mcc,55.38
2023-03-24T11:35:00,mcc,52.34
2023-03-24T11:36:00,mcc,70.41
2023-03-24T11:37:00,mcc,53.86
2023-03-24T11:38:00,mcc,52.25
2023-03-24T11:39:00,mcc,59.65
2023-03-24T11:40:00,mcc,61.25
2023-03-24T11:41:00,mcc,52.24
2023-03-24T11:42:00,mcc,68.66
2023-03-24T11:43:00,mcc,67.84
2023-03-24T11:44:00,mcc,59.91
2023-03-24T11:45:00,mcc,60.36
2023-03-24T11:46:00,mcc,55.87
2023-03-24T11:47:00,mcc,70.33
2023-03-24T11:48:00,mcc,64.69
2023-03-24T11:49:00,mcc,64.19
2023-03-24T11:50:00,mcc,65.91
2023-03-24T11:51:00,mcc,64.05
2023-03-24T11:52:00,mcc,66.19
2023-03-24T11:53:00,mcc,67.62
2023-03-24T11:54:00,mcc,63.33
2023-03-24T11:55:00,mcc,56.99
2023-03-24T11:56:00,mcc,55.05
2023-03-24T11:57:00,mcc,53.26
2023-03-24T11:58:00,mcc,62.49
2023-03-24T11:59:00,mcc,52.50
2023-03-24T12:00:00,mcc,53.64
2023-03-24T12:01:00,mcc,54.42
2023-03-24T12:02:00,mcc,54.55
2023-03-24T12:03:00,mcc,53.02
2023-03-24T12:04:00,mcc,52.70
2023-03-24T12:05:00,mcc,52.13
2023-03-24T12:06:00,mcc,52.87
2023-03-24T12:07:00,mcc,53.63
2023-03-24T12:08:00,mcc,54.09
2023-03-24T12:09:00,mcc,55.16
2023-03-24T12:10:00,mcc,54.14
2023-03-24T12:11:00,mcc,55.31
2023-03-24T12:12:00,mcc,53.35
2023-03-24T12:13:00,mcc,51.54
2023-03-24T12:14:00,mcc,52.45
2023-03-24T12:15:00,mcc,51.73
2023-03-24T12:16:00,mcc,54.57
2023-03-24T12:17:00,mcc,62.85
2023-03-24T12:18:00,mcc,56.17
2023-03-24T12:19:00,mcc,58.31
2023-03-24T12:20:00,mcc,55.74
2023-03-24T12:21:00,mcc,56.68
2023-03-24T12:22:00,mcc,56.15
2023-03-24T12:23:00,mcc,56.32
2023-03-24T12:24:00,mcc,54.05
2023-03-24T12:25:00,mcc,54.83
2023-03-24T12:26:00,mcc,55.12
2023-03-24T12:27:00,mcc,64.74
2023-03-24T12:28:00,mcc,62.79
2023-03-24T12:29:00,mcc,64.30
2023-03-24T12:30:00,mcc,53.54
2023-03-24T12:31:00,mcc,53.05
2023-03-24T12:32:00,mcc,50.77
2023-03-24T12:33:00,mcc,49.44
2023-03-24T12:34:00,mcc,52.94
2023-03-24T12:35:00,mcc,51.96
2023-03-24T12:36:00,mcc,51.29
2023-03-24T12:37:00,mcc,52.59
2023-03-24T12:38:00,mcc,54.90
2023-03-24T12:39:00,mcc,53.22
2023-03-24T12:40:00,mcc,53.14
2023-03-24T12:41:00,mcc,53.05
2023-03-24T12:42:00,mcc,52.34
2023-03-24T12:43:00,mcc,51.82
2023-03-24T12:44:00,mcc,54.76
2023-03-24T12:45:00,mcc,56.39
2023-03-24T12:46:00,mcc,67.85
2023-03-24T12:47:00,mcc,59.48
2023-03-24T12:48:00,mcc,57.04
2023-03-24T12:49:00,mcc,55.76
2023-03-24T12:50:00,mcc,54.01
2023-03-24T12:51:00,mcc,51.09
2023-03-24T12:52:00,mcc,50.87
2023-03-24T12:53:00,mcc,52.31
2023-03-24T12:54:00,mcc,52.93
2023-03-24T12:55:00,mcc,53.94
2023-03-24T12:56:00,mcc,60.61
2023-03-24T12:57:00,mcc,60.01
2023-03-24T12:58:00,mcc,60.31
2023-03-24T12:59:00,mcc,51.95
2023-03-24T13:00:00,mcc,50.57
2023-03-24T13:01:00,mcc,49.67
2023-03-24T13:02:00,mcc,50.47
2023-03-24T13:03:00,mcc,53.66
2023-03-24T13:04:00,mcc,55.52
2023-03-24T13:05:00,mcc,55.72
2023-03-24T13:06:00,mcc,53.91
2023-03-24T13:07:00,mcc,52.56
2023-03-24T13:08:00,mcc,50.54
2023-03-24T13:09:00,mcc,49.99
2023-03-24T13:10:00,mcc,57.65
2023-03-24T13:11:00,mcc,67.79
2023-03-24T13:12:00,mcc,52.66
2023-03-24T13:13:00,mcc,56.26
2023-03-24T13:14:00,mcc,55.45
2023-03-24T13:15:00,mcc,71.50
2023-03-24T13:16:00,mcc,55.46
2023-03-24T13:17:00,mcc,52.35
2023-03-24T13:18:00,mcc,54.19